Miscellaneous Local Product
Issued by NWS North Platte, NE

Home | Current Version | Previous Version | Text Only | Print | Product List | Glossary On
Versions: 1 2 3 4 5 6 7 8 9 10 11 12 13 14 15 16 17 18 19 20 21 22 23 24 25 26 27 28 29 30 31 32 33 34 35 36 37 38 39 40 41 42 43 44 45 46 47 48 49 50
000
AXUS43 KLBF 010510
MISLBF


WESTERN AND NORTH CENTRAL NEBRASKA HOURLY WEATHER ROUNDUP
NATIONAL WEATHER SERVICE NORTH PLATTE NE
1200 AM CDT TUE SEP 01 2015

NOTE: "FAIR" INDICATES FEW OR NO CLOUDS BELOW 12,000 FEET WITH NO
SIGNIFICANT WEATHER AND/OR OBSTRUCTIONS TO VISIBILITY.

NOTE: STATIONS NOT REPORTING VARIABLES SUCH AS SKY/WEATHER OR
PRESSURE ARE PROVIDED BY THE NEBRASKA DEPARTMENT OF
ROADS...RAWS...AND APRS NETWORKS...AND ARE NOT UNDER
NATIONAL WEATHER SERVICE QUALITY CONTROL.

...OBSERVATIONS IN AND NEAR THE EASTERN PANHANDLE OF NEBRASKA...

CITY           SKY/WX    TMP DP  RH WIND       PRES   REMARKS
PINE RIDGE     CLOUDY    70  54  56 S10       29.95F
CHADRON        PTCLDY    66  49  54 SW6       29.94F
ALLIANCE       CLOUDY    69  50  50 SW3       29.99F
SIDNEY         CLOUDY    66  54  65 SW7       30.06F
CRESCENT LAKE    N/A     69  55  60 E3          N/A
BIG SPRINGS      N/A     68  61  78 S3          N/A
$$

...OBSERVATIONS IN NORTH CENTRAL NEBRASKA...

CITY           SKY/WX    TMP DP  RH WIND       PRES   REMARKS
VALENTINE      MOCLDY    64  59  83 N3        29.95S
THEDFORD       CLOUDY    70  64  80 CALM      29.96F
AINSWORTH      MOCLDY    67  64  90 NE3       29.94F
O`NEILL        MOCLDY    73  70  91 SW3       29.93S
ORD            MOCLDY    67  64  90 CALM      29.91F
BROKEN BOW     MOCLDY    74  66  76 E5        29.93F
SPRINGVIEW       N/A     68  63  84 CALM        N/A
SARGENT          N/A     70  66  88 CALM        N/A
CHAMBERS         N/A     68  65  90 CALM        N/A
EWING            N/A     70  64  82 CALM        N/A
$$

...OBSERVATIONS IN SOUTHWEST NEBRASKA AND FAR NORTHEAST COLORADO...

CITY           SKY/WX    TMP DP  RH WIND       PRES   REMARKS
WRAY           CLOUDY    70  58  66 NW18      30.04S
HOLYOKE        TSTM      66  59  77 SW9G16    30.04F
IMPERIAL       MOCLDY    73  61  65 W13       29.99R
OGALLALA       CLOUDY    73  62  68 SE5       30.00R
NORTH PLATTE   CLOUDY    72  64  76 SE7       29.93S
MCCOOK         PTCLDY    79  52  38 S10       29.90R
LEXINGTON      PTCLDY    71  64  78 SE5       29.92R
PAXTON           N/A     70  62  77 SE12        N/A
BRADY            N/A     73  64  73 CALM        N/A
CALLAWAY         N/A     71  68  90 E6          N/A
$$

...OBSERVATIONS IN CENTRAL LINCOLN COUNTY AREA...

CITY           SKY/WX    TMP DP  RH WIND       PRES   REMARKS
N.P. AIRPORT   CLOUDY    72  64  76 SE7       29.93S
N.P. DOWNTOWN    N/A     76  65  68 CALM        N/A
N.P. SOUTHEAST   N/A     75  65  72 CALM        N/A
N.P. HILLCREST   N/A     76  65  68 E10         N/A
$$

...SOME OBSERVATIONS FROM AROUND THE REGION...

CITY           SKY/WX    TMP DP  RH WIND       PRES   REMARKS
DENVER         MOCLDY    62  54  74 SW3       30.16F
LARAMIE        PTCLDY    53  44  71 S12       30.22F
CHEYENNE       CLEAR     57  47  69 SW9       30.16F
SCOTTSBLUFF    PTCLDY    64  55  72 W3        30.01F
RAPID CITY     MOCLDY    62  57  83 E6        29.94F
PIERRE         PTCLDY    61  59  93 NE5       29.90F
WINNER         FAIR      69  61  75 E6        29.93S
SIOUX FALLS    CLOUDY    75  68  78 S10       29.91R
OMAHA          CLEAR     75  69  81 S7        29.92S
GRAND ISLAND   CLEAR     72  65  78 SE7       29.92S
KANSAS CITY    CLEAR     76  69  79 S10       29.99R
WICHITA        CLEAR     76  66  71 S10       29.97R
HAYS           CLEAR     75  54  46 S9        29.94R
LIBERAL        PTCLDY    72  48  43 S9        29.99R
GOODLAND       CLOUDY    71  58  63 NW16G23   30.02S
$$



USA.gov is the U.S. government's official web portal to all federal, state and local government web resources and services.